#timestamp,LO_Frequency,Hit,StdDev 
1607403615.1,286047002.8,P
1607403635.8,286047000.8,N
1607403655.7,286047000.1,N
1607403675.5,286047000.7,N
1607403695.3,286047000.6,N
1607403715.2,286047001.2,N
1607403735.9,286047001.2,N
1607403755.7,286046998.2,N
1607403775.6,286047000.7,N
1607403795.4,286047001.1,N
1607403815.2,286046998.4,N
1607403835.1,286046998.1,N
1607403836.0,286046998.1,N
1607403855.8,286046998.8,N
1607403875.6,286047001.1,N
1607403895.5,286046998.9,N
1607403915.3,286046998.7,N
1607403935.1,286046998.1,N
1607403955.9,286047000.7,N
1607403975.7,286046998.7,N
1607403995.5,286046999.0,N
1607404015.4,286046999.5,N
1607404035.2,286046999.2,N
1607404055.0,286046997.0,N
1607404055.9,286046997.0,N
1607404075.8,286046997.1,N
1607404095.6,286046999.4,N
1607404115.4,286046997.4,N
1607404135.3,286046997.4,N
1607404155.1,286046997.1,N
1607404156.0,286046997.1,N
1607404175.8,286046997.1,N
1607404195.7,286046996.9,N
1607404215.5,286046997.3,N
1607404235.3,286046997.6,N
1607404255.2,286046997.7,N
1607404275.9,286046995.0,Y
1607404295.7,286046996.6,P
1607404315.6,286046999.4,N
1607404335.4,286046998.4,N
1607404355.2,286046999.1,N
1607404375.0,286046999.4,N
1607404376.0,286046999.4,N
1607404395.8,286046998.7,N
1607404415.6,286046999.2,N
1607404435.4,286046999.1,N
1607404455.3,286046996.8,Y
1607404475.1,286046999.2,P
1607404495.8,286046998.5,P
1607404515.7,286046999.1,P
1607404535.5,286046999.6,N
1607404555.3,286046999.3,N
1607404575.2,286046998.4,Y
1607404595.0,286047000.2,P
1607404595.9,286047000.2,N
1607404615.7,286047000.8,N
1607404635.6,286046998.2,N
1607404655.4,286046998.6,N
1607404675.2,286047000.3,N
1607404695.1,286046998.2,N
1607404696.0,286046998.2,N
1607404715.8,286046998.4,N
1607404735.6,286047001.1,N
1607404755.5,286046999.8,N
1607404775.3,286047001.1,N
1607404795.1,286047001.0,N
1607404815.9,286046998.6,N
1607404835.7,286046998.9,N
1607404855.5,286046999.4,N
1607404875.4,286046998.3,N
1607404895.2,286046999.0,N
1607404915.0,286046998.9,N
1607404915.9,286046998.9,N
1607404935.8,286046998.9,N
1607404955.6,286046996.5,Y
1607404975.4,286046999.0,P
1607404995.3,286047001.1,P
1607405015.1,286047001.0,N
1607405035.8,286046998.3,N
1607405055.7,286046998.7,N
1607405075.5,286046998.8,N
1607405095.3,286046998.8,N
1607405115.2,286047000.9,N
1607405135.9,286046998.5,N
1607405155.7,286047000.9,N
1607405175.6,286046998.6,N
1607405195.4,286046998.2,N
1607405215.2,286046998.6,N
1607405235.1,286046999.1,N
1607405236.0,286046999.1,N
1607405255.8,286046999.4,N
1607405275.6,286046998.9,N
1607405295.5,286046999.0,N
1607405315.3,286046998.7,N
1607405335.1,286046998.6,N
1607405355.9,286047000.6,N
1607405375.7,286047000.5,N
1607405395.5,286047000.6,N
1607405415.4,286047001.1,N
1607405435.2,286046998.1,N
1607405455.0,286046998.2,N
1607405455.9,286046998.2,N
1607405475.8,286047000.7,N
1607405495.6,286047000.0,N
1607405515.4,286047000.9,N
1607405535.3,286047000.9,N
1607405555.1,286047000.9,N
1607405556.0,286047000.9,N
1607405575.8,286047002.8,N
1607405595.7,286047002.2,N
1607405615.5,286047002.4,N
1607405635.3,286047002.1,N
1607405655.2,286047002.6,N
1607405675.9,286047002.4,N
1607405695.7,286047001.5,N
1607405715.6,286047001.8,N
1607405735.4,286047001.7,N
1607405755.2,286047003.5,N
1607405775.0,286047004.4,N
1607405776.0,286047004.4,N
1607405795.8,286047004.4,N
1607405815.6,286047001.4,N
1607405835.4,286047001.7,N
1607405855.3,286047003.6,N
1607405875.1,286047004.3,N
1607405895.8,286047003.8,N
1607405915.7,286047003.8,N
1607405935.5,286047003.9,N
1607405955.3,286047001.3,N
1607405975.2,286047003.6,N
1607405995.0,286047005.7,Y
1607405995.9,286047005.7,P
1607406015.8,286047001.9,N
1607406035.6,286047004.1,N
1607406055.4,286047005.6,Y
1607406075.2,286047000.6,P
1607406095.1,286047000.1,N
1607406096.0,286047000.1,N
1607406115.8,286047000.3,N
1607406135.6,286047002.8,N
1607406155.5,286047001.8,N
1607406175.3,286047002.4,N
1607406195.1,286047001.9,N
1607406215.9,286047003.7,Y
1607406235.7,286047002.0,P
1607406255.5,286047004.3,P
1607406275.4,286047001.4,N
1607406295.2,286047004.3,Y
1607406315.1,286047000.0,P
1607406316.0,286047000.0,N
1607406335.8,286046999.9,N
1607406355.6,286046999.7,N
1607406375.5,286047000.2,N
1607406395.3,286047002.5,N
1607406415.1,286047002.1,N
1607406435.9,286047002.8,N
1607406455.7,286047002.6,N
1607406475.5,286047004.4,Y
1607406495.4,286047001.9,P
1607406515.2,286047003.6,P
1607406535.0,286047005.5,P
1607406535.9,286047005.5,Y
1607406555.8,286046998.7,P
1607406575.6,286047001.0,N
1607406595.4,286047000.1,N
1607406615.3,286047000.9,N
1607406635.1,286047002.6,N
1607406636.0,286047002.6,N
1607406655.8,286047002.6,N
1607406675.7,286047002.1,N
1607406695.5,286047011.9,Y
1607406715.3,286046999.9,P
1607406735.2,286046999.8,N
1607406755.9,286047001.8,N
1607406775.7,286047001.6,N
1607406795.6,286047001.7,N
1607406815.4,286047003.5,Y
1607406835.2,286047003.9,P
1607406855.1,286047001.4,N
1607406856.0,286047001.4,N
1607406875.8,286047003.2,N
1607406895.6,286047003.6,Y
1607406915.5,286046999.9,P
1607406935.3,286047001.7,N
1607406955.1,286047004.0,P
1607406975.9,286047003.7,N
1607406995.7,286047003.5,N
1607407015.5,286047003.4,N
1607407035.4,286047002.9,N
1607407055.2,286047004.9,Y
1607407075.0,286047004.3,P
1607407075.9,286047004.3,P
1607407095.8,286047002.8,P
1607407115.6,286047002.2,N
1607407135.4,286047001.5,N
1607407155.3,286047001.8,N
1607407175.1,286047001.3,N
1607407176.0,286047001.3,N
1607407195.8,286047001.5,N
